Time,TemperatureF,DewpointF,PressureIn,WindDirection,WindDirectionDegrees,WindSpeedMPH,WindSpeedGustMPH,Humidity,HourlyPrecipIn,Conditions,Clouds,dailyrainin,SoftwareType,DateUTC
2013-09-01 00:01:00,65.3,65.0,29.85,SE,135,4.2,6.0,100,0.00,,,0.00,Rainwise IP-100,2013-09-01 04:01:00,
2013-09-01 00:06:00,65.3,65.0,29.85,SE,135,5.1,7.0,100,0.00,,,0.00,Rainwise IP-100,2013-09-01 04:06:00,
2013-09-01 00:11:00,65.2,65.0,29.85,SE,135,4.9,7.0,100,0.00,,,0.00,Rainwise IP-100,2013-09-01 04:11:00,
2013-09-01 00:16:00,65.0,65.0,29.85,SE,135,5.4,7.0,100,0.00,,,0.00,Rainwise IP-100,2013-09-01 04:16:00,
2013-09-01 00:21:00,65.0,65.0,29.84,SE,135,5.6,6.0,100,0.00,,,0.00,Rainwise IP-100,2013-09-01 04:21:00,
2013-09-01 00:26:00,64.8,64.0,29.85,SE,135,4.9,7.0,100,0.00,,,0.00,Rainwise IP-100,2013-09-01 04:26:00,
2013-09-01 00:31:00,64.5,64.0,29.85,SE,135,8.2,9.0,100,0.00,,,0.00,Rainwise IP-100,2013-09-01 04:31:00,
2013-09-01 00:36:00,64.5,64.0,29.85,SE,135,5.6,9.0,100,0.00,,,0.00,Rainwise IP-100,2013-09-01 04:36:00,
2013-09-01 00:41:00,64.6,64.0,29.84,SE,135,3.7,7.0,100,0.00,,,0.00,Rainwise IP-100,2013-09-01 04:41:00,
2013-09-01 00:46:00,64.7,64.0,29.84,SE,135,3.7,6.0,100,0.00,,,0.00,Rainwise IP-100,2013-09-01 04:46:00,
2013-09-01 00:51:00,65.0,65.0,29.84,SE,135,6.8,6.8,100,0.00,,,0.00,Rainwise IP-100,2013-09-01 04:51:00,
2013-09-01 00:56:00,65.2,65.0,29.83,SE,135,4.2,10.0,100,0.00,,,0.00,Rainwise IP-100,2013-09-01 04:56:00,
2013-09-01 01:01:00,65.2,65.0,29.83,SSE,157,4.9,7.0,100,0.00,,,0.00,Rainwise IP-100,2013-09-01 05:01:00,
2013-09-01 01:06:00,65.3,65.0,29.83,South,180,3.3,5.0,100,0.00,,,0.00,Rainwise IP-100,2013-09-01 05:06:00,
2013-09-01 01:11:00,65.1,65.0,29.83,SSE,157,4.2,7.0,100,0.00,,,0.00,Rainwise IP-100,2013-09-01 05:11:00,
2013-09-01 01:16:00,64.9,65.0,29.82,South,180,3.7,7.0,100,0.00,,,0.00,Rainwise IP-100,2013-09-01 05:16:00,
2013-09-01 01:21:00,64.9,65.0,29.83,South,180,5.8,7.0,100,0.00,,,0.00,Rainwise IP-100,2013-09-01 05:21:00,
2013-09-01 01:26:00,65.0,65.0,29.82,SSE,157,6.1,9.0,100,0.00,,,0.00,Rainwise IP-100,2013-09-01 05:26:00,
2013-09-01 01:31:00,65.1,65.0,29.82,South,180,6.1,8.0,100,0.00,,,0.00,Rainwise IP-100,2013-09-01 05:31:00,
2013-09-01 01:36:00,65.1,65.0,29.82,SE,135,7.2,10.0,100,0.00,,,0.00,Rainwise IP-100,2013-09-01 05:36:00,
2013-09-01 01:41:00,64.8,64.0,29.81,South,180,5.6,10.0,100,0.00,,,0.00,Rainwise IP-100,2013-09-01 05:41:00,
2013-09-01 01:46:00,64.5,64.0,29.81,SE,135,9.3,11.0,100,0.00,,,0.00,Rainwise IP-100,2013-09-01 05:46:00,
2013-09-01 01:51:00,64.7,64.0,29.81,SE,135,7.5,12.0,100,0.00,,,0.00,Rainwise IP-100,2013-09-01 05:51:00,
2013-09-01 01:56:00,64.9,65.0,29.82,South,180,7.7,10.0,100,0.00,,,0.00,Rainwise IP-100,2013-09-01 05:56:00,
2013-09-01 02:01:00,64.9,65.0,29.82,South,180,6.5,10.0,100,0.00,,,0.00,Rainwise IP-100,2013-09-01 06:01:00,
2013-09-01 02:06:00,64.6,64.0,29.82,SSW,202,6.1,11.0,100,0.00,,,0.00,Rainwise IP-100,2013-09-01 06:06:00,
2013-09-01 02:11:00,64.7,64.0,29.81,SSE,157,2.1,7.0,100,0.00,,,0.00,Rainwise IP-100,2013-09-01 06:11:00,
2013-09-01 02:16:00,65.0,65.0,29.81,SSW,202,1.9,6.0,100,0.00,,,0.00,Rainwise IP-100,2013-09-01 06:16:00,
2013-09-01 02:21:00,65.2,65.0,29.81,South,180,4.0,5.0,100,0.00,,,0.00,Rainwise IP-100,2013-09-01 06:21:00,
2013-09-01 02:26:00,65.3,65.0,29.81,SE,135,3.5,4.0,100,0.00,,,0.00,Rainwise IP-100,2013-09-01 06:26:00,
2013-09-01 02:31:00,65.2,65.0,29.81,SE,135,4.9,5.0,100,0.00,,,0.00,Rainwise IP-100,2013-09-01 06:31:00,
2013-09-01 02:36:00,65.2,65.0,29.82,SSE,157,4.0,6.0,100,0.00,,,0.00,Rainwise IP-100,2013-09-01 06:36:00,
2013-09-01 02:41:00,65.3,65.0,29.81,SSE,157,3.7,6.0,100,0.00,,,0.00,Rainwise IP-100,2013-09-01 06:41:00,
2013-09-01 02:46:00,65.6,65.0,29.81,SSE,157,6.1,7.0,100,0.06,,,0.01,Rainwise IP-100,2013-09-01 06:46:00,
2013-09-01 02:51:00,65.7,65.0,29.81,SE,135,10.7,10.7,100,0.06,,,0.01,Rainwise IP-100,2013-09-01 06:51:00,
2013-09-01 02:56:00,65.3,65.0,29.80,SE,135,5.1,11.0,100,0.00,,,0.01,Rainwise IP-100,2013-09-01 06:56:00,
2013-09-01 03:01:00,65.0,65.0,29.81,SE,135,5.4,8.0,100,0.00,,,0.01,Rainwise IP-100,2013-09-01 07:01:00,
2013-09-01 03:06:00,64.7,64.0,29.80,SE,135,10.0,10.0,100,0.00,,,0.01,Rainwise IP-100,2013-09-01 07:06:00,
2013-09-01 03:11:00,64.5,64.0,29.80,SE,135,5.8,11.0,100,0.00,,,0.01,Rainwise IP-100,2013-09-01 07:11:00,
2013-09-01 03:16:00,64.4,64.0,29.80,SSE,157,6.1,10.0,100,0.00,,,0.01,Rainwise IP-100,2013-09-01 07:16:00,
2013-09-01 03:21:00,64.4,64.0,29.80,SE,135,5.8,8.0,100,0.00,,,0.01,Rainwise IP-100,2013-09-01 07:21:00,
2013-09-01 03:26:00,64.4,64.0,29.80,SE,135,4.4,8.0,100,0.00,,,0.01,Rainwise IP-100,2013-09-01 07:26:00,
2013-09-01 03:31:00,64.4,64.0,29.80,SE,135,3.0,6.0,100,0.00,,,0.01,Rainwise IP-100,2013-09-01 07:31:00,
2013-09-01 03:36:00,64.5,64.0,29.80,NNE,22,3.7,5.0,100,0.06,,,0.02,Rainwise IP-100,2013-09-01 07:36:00,
2013-09-01 03:41:00,64.4,64.0,29.80,ENE,67,4.9,5.0,100,0.06,,,0.02,Rainwise IP-100,2013-09-01 07:41:00,
2013-09-01 03:46:00,64.6,64.0,29.80,NE,45,2.6,5.0,100,0.00,,,0.02,Rainwise IP-100,2013-09-01 07:46:00,
2013-09-01 03:51:00,65.0,65.0,29.81,NW,315,2.3,3.0,100,0.00,,,0.02,Rainwise IP-100,2013-09-01 07:51:00,
2013-09-01 03:56:00,65.2,65.0,29.80,NW,315,3.0,7.0,100,0.00,,,0.02,Rainwise IP-100,2013-09-01 07:56:00,
2013-09-01 04:01:00,65.2,65.0,29.81,NNW,337,0.0,6.0,100,0.00,,,0.02,Rainwise IP-100,2013-09-01 08:01:00,
2013-09-01 04:06:00,65.3,65.0,29.80,NW,315,0.0,3.0,100,0.00,,,0.02,Rainwise IP-100,2013-09-01 08:06:00,
2013-09-01 04:11:00,65.6,65.0,29.81,West,270,0.0,2.0,100,0.00,,,0.02,Rainwise IP-100,2013-09-01 08:11:00,
2013-09-01 04:16:00,65.7,65.0,29.80,ENE,67,2.8,4.0,100,0.00,,,0.02,Rainwise IP-100,2013-09-01 08:16:00,
2013-09-01 04:21:00,65.5,65.0,29.80,ESE,112,0.0,4.0,100,0.06,,,0.03,Rainwise IP-100,2013-09-01 08:21:00,
2013-09-01 04:26:00,65.8,65.0,29.80,ESE,112,2.1,2.1,100,0.06,,,0.03,Rainwise IP-100,2013-09-01 08:26:00,
2013-09-01 04:31:00,66.1,66.0,29.81,ESE,112,1.2,2.0,100,0.00,,,0.03,Rainwise IP-100,2013-09-01 08:31:00,
2013-09-01 04:36:00,65.9,66.0,29.80,SE,135,2.8,4.0,100,0.00,,,0.03,Rainwise IP-100,2013-09-01 08:36:00,
2013-09-01 04:41:00,65.6,65.0,29.81,ESE,112,3.0,5.0,100,0.00,,,0.03,Rainwise IP-100,2013-09-01 08:41:00,
2013-09-01 04:46:00,65.6,65.0,29.81,SE,135,1.9,4.0,100,0.00,,,0.03,Rainwise IP-100,2013-09-01 08:46:00,
2013-09-01 04:51:00,65.9,66.0,29.81,SE,135,1.2,2.0,100,0.00,,,0.03,Rainwise IP-100,2013-09-01 08:51:00,
2013-09-01 04:56:00,66.0,66.0,29.81,SE,135,2.1,5.0,100,0.00,,,0.03,Rainwise IP-100,2013-09-01 08:56:00,
2013-09-01 05:01:00,66.1,66.0,29.81,SSE,157,2.6,4.0,100,0.00,,,0.03,Rainwise IP-100,2013-09-01 09:01:00,
2013-09-01 05:06:00,66.6,66.0,29.81,SSE,157,0.0,4.0,100,0.00,,,0.03,Rainwise IP-100,2013-09-01 09:06:00,
2013-09-01 05:11:00,66.9,67.0,29.81,ENE,67,2.1,3.0,100,0.00,,,0.03,Rainwise IP-100,2013-09-01 09:11:00,
2013-09-01 05:16:00,66.5,66.0,29.81,ESE,112,2.6,3.0,100,0.00,,,0.03,Rainwise IP-100,2013-09-01 09:16:00,
2013-09-01 05:21:00,66.1,66.0,29.81,ESE,112,4.0,4.0,100,0.00,,,0.03,Rainwise IP-100,2013-09-01 09:21:00,
2013-09-01 05:26:00,65.6,65.0,29.81,ESE,112,2.3,4.0,100,0.00,,,0.03,Rainwise IP-100,2013-09-01 09:26:00,
2013-09-01 05:31:00,65.1,65.0,29.80,SE,135,0.0,3.0,100,0.00,,,0.03,Rainwise IP-100,2013-09-01 09:31:00,
2013-09-01 05:36:00,65.7,65.0,29.81,NNE,22,2.6,3.0,100,0.00,,,0.03,Rainwise IP-100,2013-09-01 09:36:00,
2013-09-01 05:41:00,65.5,65.0,29.81,ESE,112,2.1,4.0,100,0.00,,,0.03,Rainwise IP-100,2013-09-01 09:41:00,
2013-09-01 05:46:00,64.8,64.0,29.82,ESE,112,0.0,2.0,100,0.00,,,0.03,Rainwise IP-100,2013-09-01 09:46:00,
2013-09-01 05:51:00,64.8,64.0,29.82,ENE,67,2.6,3.0,100,0.00,,,0.03,Rainwise IP-100,2013-09-01 09:51:00,
2013-09-01 05:56:00,64.6,64.0,29.82,East,90,1.2,3.0,100,0.00,,,0.03,Rainwise IP-100,2013-09-01 09:56:00,
2013-09-01 06:01:00,64.2,64.0,29.81,East,90,0.0,2.0,100,0.00,,,0.03,Rainwise IP-100,2013-09-01 10:01:00,
2013-09-01 06:06:00,64.2,64.0,29.82,East,90,1.6,1.6,100,0.00,,,0.03,Rainwise IP-100,2013-09-01 10:06:00,
2013-09-01 06:11:00,64.1,64.0,29.81,ESE,112,2.8,3.0,100,0.00,,,0.03,Rainwise IP-100,2013-09-01 10:11:00,
2013-09-01 06:16:00,64.1,64.0,29.82,ESE,112,1.6,3.0,100,0.00,,,0.03,Rainwise IP-100,2013-09-01 10:16:00,
2013-09-01 06:21:00,64.2,64.0,29.82,ESE,112,1.2,2.0,100,0.00,,,0.03,Rainwise IP-100,2013-09-01 10:21:00,
2013-09-01 06:26:00,64.3,64.0,29.82,ESE,112,0.0,1.0,100,0.00,,,0.03,Rainwise IP-100,2013-09-01 10:26:00,
2013-09-01 06:31:00,64.4,64.0,29.82,ESE,112,1.4,3.0,100,0.00,,,0.03,Rainwise IP-100,2013-09-01 10:31:00,
2013-09-01 06:36:00,64.4,64.0,29.82,ESE,112,0.0,1.0,100,0.00,,,0.03,Rainwise IP-100,2013-09-01 10:36:00,
2013-09-01 06:41:00,64.6,64.0,29.82,NE,45,0.0,1.0,100,0.00,,,0.03,Rainwise IP-100,2013-09-01 10:41:00,
2013-09-01 06:46:00,65.3,65.0,29.82,NW,315,1.4,4.0,100,0.00,,,0.03,Rainwise IP-100,2013-09-01 10:46:00,
2013-09-01 06:51:00,65.7,65.0,29.82,NW,315,1.9,4.0,100,0.00,,,0.03,Rainwise IP-100,2013-09-01 10:51:00,
2013-09-01 06:56:00,65.7,65.0,29.83,NW,315,0.0,2.0,100,0.00,,,0.03,Rainwise IP-100,2013-09-01 10:56:00,
2013-09-01 07:01:00,65.9,66.0,29.84,NW,315,2.6,3.0,100,0.00,,,0.03,Rainwise IP-100,2013-09-01 11:01:00,
2013-09-01 07:06:00,66.1,66.0,29.84,NW,315,1.2,3.0,100,0.00,,,0.03,Rainwise IP-100,2013-09-01 11:06:00,
2013-09-01 07:11:00,66.2,66.0,29.84,NW,315,1.2,2.0,100,0.00,,,0.03,Rainwise IP-100,2013-09-01 11:11:00,
2013-09-01 07:16:00,66.2,66.0,29.84,NW,315,0.0,1.0,100,0.00,,,0.03,Rainwise IP-100,2013-09-01 11:16:00,
2013-09-01 07:21:00,66.1,66.0,29.85,NW,315,0.0,0.0,100,0.00,,,0.03,Rainwise IP-100,2013-09-01 11:21:00,
2013-09-01 07:26:00,66.0,66.0,29.85,NW,315,0.0,0.0,100,0.00,,,0.03,Rainwise IP-100,2013-09-01 11:26:00,
2013-09-01 07:31:00,66.0,66.0,29.85,NW,315,0.0,0.0,100,0.00,,,0.03,Rainwise IP-100,2013-09-01 11:31:00,
2013-09-01 07:36:00,66.3,66.0,29.85,NW,315,0.0,0.0,100,0.00,,,0.03,Rainwise IP-100,2013-09-01 11:36:00,
2013-09-01 07:41:00,66.6,66.0,29.85,NW,315,0.0,0.0,100,0.00,,,0.03,Rainwise IP-100,2013-09-01 11:41:00,
2013-09-01 07:46:00,66.8,66.0,29.85,NW,315,0.0,0.0,100,0.00,,,0.03,Rainwise IP-100,2013-09-01 11:46:00,
2013-09-01 07:51:00,67.0,67.0,29.86,NW,315,0.0,0.0,100,0.00,,,0.03,Rainwise IP-100,2013-09-01 11:51:00,
2013-09-01 07:56:00,67.2,67.0,29.85,NW,315,0.0,0.0,100,0.00,,,0.03,Rainwise IP-100,2013-09-01 11:56:00,
2013-09-01 08:01:00,66.8,66.0,29.85,East,90,3.7,4.0,100,0.00,,,0.03,Rainwise IP-100,2013-09-01 12:01:00,
2013-09-01 08:06:00,65.8,65.0,29.85,SE,135,2.6,4.0,100,0.00,,,0.03,Rainwise IP-100,2013-09-01 12:06:00,
2013-09-01 08:11:00,65.8,65.0,29.85,SE,135,1.4,2.0,100,0.00,,,0.03,Rainwise IP-100,2013-09-01 12:11:00,
2013-09-01 08:16:00,66.4,66.0,29.85,SE,135,3.5,5.0,100,0.00,,,0.03,Rainwise IP-100,2013-09-01 12:16:00,
2013-09-01 08:21:00,66.5,66.0,29.85,SE,135,3.5,4.0,100,0.00,,,0.03,Rainwise IP-100,2013-09-01 12:21:00,
2013-09-01 08:26:00,66.5,66.0,29.86,SE,135,1.4,3.0,100,0.00,,,0.03,Rainwise IP-100,2013-09-01 12:26:00,
2013-09-01 08:31:00,66.6,66.0,29.86,SE,135,2.8,3.0,100,0.00,,,0.03,Rainwise IP-100,2013-09-01 12:31:00,
2013-09-01 08:36:00,66.3,66.0,29.86,SE,135,1.2,3.0,100,0.00,,,0.03,Rainwise IP-100,2013-09-01 12:36:00,
2013-09-01 08:41:00,66.3,66.0,29.86,SE,135,1.6,1.6,100,0.00,,,0.03,Rainwise IP-100,2013-09-01 12:41:00,
2013-09-01 08:46:00,66.3,66.0,29.86,SE,135,0.0,1.0,100,0.00,,,0.03,Rainwise IP-100,2013-09-01 12:46:00,
2013-09-01 08:51:00,66.4,66.0,29.86,SE,135,0.0,1.0,100,0.00,,,0.03,Rainwise IP-100,2013-09-01 12:51:00,
2013-09-01 08:56:00,66.7,66.0,29.85,SE,135,0.0,1.0,100,0.00,,,0.03,Rainwise IP-100,2013-09-01 12:56:00,
2013-09-01 09:01:00,67.1,67.0,29.85,SE,135,0.0,0.0,100,0.00,,,0.03,Rainwise IP-100,2013-09-01 13:01:00,
2013-09-01 09:06:00,67.6,67.0,29.85,SE,135,2.6,2.6,100,0.00,,,0.03,Rainwise IP-100,2013-09-01 13:06:00,
2013-09-01 09:11:00,67.3,67.0,29.85,SE,135,0.0,3.0,100,0.00,,,0.03,Rainwise IP-100,2013-09-01 13:11:00,
2013-09-01 09:16:00,67.3,67.0,29.85,SE,135,0.0,0.0,100,0.00,,,0.03,Rainwise IP-100,2013-09-01 13:16:00,
2013-09-01 09:21:00,67.7,67.0,29.85,SE,135,1.6,1.6,100,0.00,,,0.03,Rainwise IP-100,2013-09-01 13:21:00,
2013-09-01 09:26:00,67.3,67.0,29.85,SE,135,2.3,3.0,100,0.00,,,0.03,Rainwise IP-100,2013-09-01 13:26:00,
2013-09-01 09:31:00,67.0,67.0,29.85,SE,135,1.4,2.0,100,0.00,,,0.03,Rainwise IP-100,2013-09-01 13:31:00,
2013-09-01 09:36:00,67.0,67.0,29.86,SE,135,1.4,2.0,100,0.00,,,0.03,Rainwise IP-100,2013-09-01 13:36:00,
2013-09-01 09:41:00,67.4,67.0,29.85,SE,135,0.0,1.0,100,0.00,,,0.03,Rainwise IP-100,2013-09-01 13:41:00,
2013-09-01 09:46:00,68.2,68.0,29.86,SE,135,0.0,0.0,100,0.00,,,0.03,Rainwise IP-100,2013-09-01 13:46:00,
2013-09-01 09:51:00,69.0,69.0,29.86,SE,135,0.0,0.0,100,0.00,,,0.03,Rainwise IP-100,2013-09-01 13:51:00,
2013-09-01 09:56:00,69.6,69.0,29.86,SE,135,0.0,0.0,100,0.00,,,0.03,Rainwise IP-100,2013-09-01 13:56:00,
2013-09-01 10:01:00,69.9,70.0,29.87,NNW,337,1.4,3.0,100,0.00,,,0.03,Rainwise IP-100,2013-09-01 14:01:00,
2013-09-01 10:06:00,69.7,69.0,29.86,NNW,337,5.6,5.6,100,0.00,,,0.03,Rainwise IP-100,2013-09-01 14:06:00,
2013-09-01 10:11:00,70.1,70.0,29.86,North,0,2.3,6.0,100,0.00,,,0.03,Rainwise IP-100,2013-09-01 14:11:00,
2013-09-01 10:16:00,71.0,71.0,29.86,NNW,337,0.0,4.0,100,0.00,,,0.03,Rainwise IP-100,2013-09-01 14:16:00,
2013-09-01 10:21:00,72.1,72.0,29.87,North,0,0.0,2.0,100,0.00,,,0.03,Rainwise IP-100,2013-09-01 14:21:00,
2013-09-01 10:26:00,73.5,73.0,29.87,North,0,0.0,2.0,100,0.00,,,0.03,Rainwise IP-100,2013-09-01 14:26:00,
2013-09-01 10:31:00,74.3,74.0,29.86,NNE,22,0.0,4.0,100,0.00,,,0.03,Rainwise IP-100,2013-09-01 14:31:00,
2013-09-01 10:36:00,74.9,75.0,29.86,North,0,1.4,4.0,100,0.00,,,0.03,Rainwise IP-100,2013-09-01 14:36:00,
2013-09-01 10:41:00,75.6,75.0,29.86,North,0,1.9,3.0,100,0.00,,,0.03,Rainwise IP-100,2013-09-01 14:41:00,
2013-09-01 10:46:00,73.8,73.0,29.86,East,90,3.0,4.0,99,0.00,,,0.03,Rainwise IP-100,2013-09-01 14:46:00,
2013-09-01 10:51:00,70.8,70.0,29.86,SE,135,4.9,6.0,99,0.00,,,0.03,Rainwise IP-100,2013-09-01 14:51:00,
2013-09-01 10:56:00,69.6,69.0,29.87,SSE,157,2.8,5.0,99,0.00,,,0.03,Rainwise IP-100,2013-09-01 14:56:00,
2013-09-01 11:01:00,69.7,69.0,29.87,SE,135,4.2,5.0,100,0.00,,,0.03,Rainwise IP-100,2013-09-01 15:01:00,
2013-09-01 11:06:00,69.6,69.0,29.87,ESE,112,1.9,5.0,100,0.00,,,0.03,Rainwise IP-100,2013-09-01 15:06:00,
2013-09-01 11:11:00,69.1,69.0,29.87,SE,135,4.7,6.0,100,0.00,,,0.03,Rainwise IP-100,2013-09-01 15:11:00,
2013-09-01 11:16:00,69.3,69.0,29.87,SE,135,4.9,6.0,100,0.00,,,0.03,Rainwise IP-100,2013-09-01 15:16:00,
2013-09-01 11:21:00,69.7,69.0,29.87,ESE,112,4.4,5.0,100,0.00,,,0.03,Rainwise IP-100,2013-09-01 15:21:00,
2013-09-01 11:26:00,69.5,69.0,29.87,ESE,112,3.5,5.0,100,0.00,,,0.03,Rainwise IP-100,2013-09-01 15:26:00,
2013-09-01 11:31:00,69.3,69.0,29.88,ESE,112,3.7,4.0,100,0.00,,,0.03,Rainwise IP-100,2013-09-01 15:31:00,
2013-09-01 11:36:00,69.6,69.0,29.88,ESE,112,2.6,4.0,100,0.00,,,0.03,Rainwise IP-100,2013-09-01 15:36:00,
2013-09-01 11:41:00,69.9,70.0,29.88,ESE,112,1.6,4.0,100,0.00,,,0.03,Rainwise IP-100,2013-09-01 15:41:00,
2013-09-01 11:46:00,70.3,69.0,29.88,ESE,112,1.6,2.0,99,0.00,,,0.03,Rainwise IP-100,2013-09-01 15:46:00,
2013-09-01 11:51:00,71.0,70.0,29.88,ESE,112,2.1,2.1,99,0.00,,,0.03,Rainwise IP-100,2013-09-01 15:51:00,
2013-09-01 11:56:00,71.4,70.0,29.88,ESE,112,1.6,2.0,98,0.00,,,0.03,Rainwise IP-100,2013-09-01 15:56:00,
2013-09-01 12:01:00,71.9,71.0,29.88,ESE,112,1.6,2.0,98,0.00,,,0.03,Rainwise IP-100,2013-09-01 16:01:00,
2013-09-01 12:06:00,72.7,72.0,29.88,ESE,112,0.0,2.0,97,0.00,,,0.03,Rainwise IP-100,2013-09-01 16:06:00,
2013-09-01 12:11:00,74.3,73.0,29.88,ENE,67,0.0,0.0,97,0.00,,,0.03,Rainwise IP-100,2013-09-01 16:11:00,
2013-09-01 12:16:00,75.5,74.0,29.88,East,90,3.0,4.0,95,0.00,,,0.03,Rainwise IP-100,2013-09-01 16:16:00,
2013-09-01 12:21:00,74.7,72.0,29.89,East,90,1.9,3.0,93,0.00,,,0.03,Rainwise IP-100,2013-09-01 16:21:00,
2013-09-01 12:26:00,74.2,72.0,29.88,East,90,2.3,2.3,93,0.00,,,0.03,Rainwise IP-100,2013-09-01 16:26:00,
2013-09-01 12:31:00,74.2,72.0,29.89,East,90,1.6,3.0,93,0.00,,,0.03,Rainwise IP-100,2013-09-01 16:31:00,
2013-09-01 12:36:00,73.9,72.0,29.89,East,90,2.1,3.0,93,0.00,,,0.03,Rainwise IP-100,2013-09-01 16:36:00,
2013-09-01 12:41:00,74.1,71.0,29.88,East,90,2.3,2.3,92,0.00,,,0.03,Rainwise IP-100,2013-09-01 16:41:00,
2013-09-01 12:46:00,74.8,72.0,29.89,East,90,1.4,2.0,92,0.00,,,0.03,Rainwise IP-100,2013-09-01 16:46:00,
2013-09-01 12:51:00,74.8,72.0,29.89,ESE,112,2.3,4.0,91,0.00,,,0.03,Rainwise IP-100,2013-09-01 16:51:00,
2013-09-01 12:56:00,74.6,71.0,29.89,ESE,112,0.0,2.0,90,0.00,,,0.03,Rainwise IP-100,2013-09-01 16:56:00,
2013-09-01 13:01:00,75.5,72.0,29.89,East,90,0.0,1.0,89,0.00,,,0.03,Rainwise IP-100,2013-09-01 17:01:00,
2013-09-01 13:06:00,77.5,73.0,29.90,NE,45,0.0,1.0,87,0.00,,,0.03,Rainwise IP-100,2013-09-01 17:06:00,
2013-09-01 13:11:00,79.2,74.0,29.90,North,0,0.0,3.0,84,0.00,,,0.03,Rainwise IP-100,2013-09-01 17:11:00,
2013-09-01 13:16:00,80.3,73.0,29.90,North,0,0.0,1.0,80,0.00,,,0.03,Rainwise IP-100,2013-09-01 17:16:00,
2013-09-01 13:21:00,79.9,72.0,29.90,ENE,67,0.0,2.0,77,0.00,,,0.03,Rainwise IP-100,2013-09-01 17:21:00,
2013-09-01 13:26:00,79.2,71.0,29.90,NNW,337,0.0,1.0,77,0.00,,,0.03,Rainwise IP-100,2013-09-01 17:26:00,
2013-09-01 13:31:00,79.7,72.0,29.89,NNW,337,0.0,1.0,78,0.00,,,0.03,Rainwise IP-100,2013-09-01 17:31:00,
2013-09-01 13:36:00,79.9,72.0,29.89,ENE,67,1.2,2.0,78,0.00,,,0.03,Rainwise IP-100,2013-09-01 17:36:00,
2013-09-01 13:41:00,78.7,71.0,29.89,East,90,0.0,2.0,79,0.00,,,0.03,Rainwise IP-100,2013-09-01 17:41:00,
2013-09-01 13:46:00,78.6,72.0,29.90,East,90,0.0,1.0,81,0.00,,,0.03,Rainwise IP-100,2013-09-01 17:46:00,
2013-09-01 13:51:00,80.2,73.0,29.90,East,90,0.0,0.0,80,0.00,,,0.03,Rainwise IP-100,2013-09-01 17:51:00,
2013-09-01 13:56:00,80.9,73.0,29.89,East,90,2.8,3.0,78,0.00,,,0.03,Rainwise IP-100,2013-09-01 17:56:00,
2013-09-01 14:01:00,80.1,71.0,29.89,East,90,1.9,3.0,76,0.00,,,0.03,Rainwise IP-100,2013-09-01 18:01:00,
2013-09-01 14:06:00,79.4,71.0,29.90,East,90,1.4,2.0,77,0.00,,,0.03,Rainwise IP-100,2013-09-01 18:06:00,
2013-09-01 14:11:00,80.1,71.0,29.89,East,90,0.0,1.0,76,0.00,,,0.03,Rainwise IP-100,2013-09-01 18:11:00,
2013-09-01 14:16:00,80.4,72.0,29.90,ESE,112,3.0,3.0,75,0.00,,,0.03,Rainwise IP-100,2013-09-01 18:16:00,
2013-09-01 14:21:00,79.1,71.0,29.90,SSE,157,2.8,4.0,77,0.00,,,0.03,Rainwise IP-100,2013-09-01 18:21:00,
2013-09-01 14:26:00,77.8,71.0,29.89,ESE,112,5.4,5.4,80,0.00,,,0.03,Rainwise IP-100,2013-09-01 18:26:00,
2013-09-01 14:31:00,77.4,71.0,29.90,ESE,112,3.0,5.0,82,0.00,,,0.03,Rainwise IP-100,2013-09-01 18:31:00,
2013-09-01 14:36:00,77.2,71.0,29.89,ESE,112,2.6,3.0,82,0.00,,,0.03,Rainwise IP-100,2013-09-01 18:36:00,
2013-09-01 14:41:00,77.6,72.0,29.90,ESE,112,2.1,3.0,82,0.00,,,0.03,Rainwise IP-100,2013-09-01 18:41:00,
2013-09-01 14:46:00,78.2,71.0,29.90,ESE,112,2.1,2.1,80,0.00,,,0.03,Rainwise IP-100,2013-09-01 18:46:00,
2013-09-01 14:51:00,79.1,72.0,29.89,ESE,112,2.6,3.0,79,0.00,,,0.03,Rainwise IP-100,2013-09-01 18:51:00,
2013-09-01 14:56:00,78.0,71.0,29.89,ESE,112,4.4,7.0,78,0.00,,,0.03,Rainwise IP-100,2013-09-01 18:56:00,
2013-09-01 15:01:00,75.5,69.0,29.89,ESE,112,3.3,5.0,80,0.00,,,0.03,Rainwise IP-100,2013-09-01 19:01:00,
2013-09-01 15:06:00,75.1,69.0,29.89,SE,135,4.9,6.0,83,0.00,,,0.03,Rainwise IP-100,2013-09-01 19:06:00,
2013-09-01 15:11:00,74.9,70.0,29.89,SSE,157,4.0,11.0,84,0.06,,,0.04,Rainwise IP-100,2013-09-01 19:11:00,
2013-09-01 15:16:00,74.4,69.0,29.89,SE,135,4.4,6.0,85,0.06,,,0.04,Rainwise IP-100,2013-09-01 19:16:00,
2013-09-01 15:21:00,75.0,70.0,29.89,SE,135,4.4,6.0,85,0.00,,,0.04,Rainwise IP-100,2013-09-01 19:21:00,
2013-09-01 15:26:00,75.1,70.0,29.89,SE,135,4.7,8.0,84,0.00,,,0.04,Rainwise IP-100,2013-09-01 19:26:00,
2013-09-01 15:31:00,75.1,70.0,29.89,ESE,112,5.6,6.0,84,0.00,,,0.04,Rainwise IP-100,2013-09-01 19:31:00,
2013-09-01 15:36:00,75.4,71.0,29.89,ESE,112,3.5,6.0,85,0.00,,,0.04,Rainwise IP-100,2013-09-01 19:36:00,
2013-09-01 15:41:00,76.0,71.0,29.90,SE,135,4.4,6.0,84,0.00,,,0.04,Rainwise IP-100,2013-09-01 19:41:00,
2013-09-01 15:46:00,76.7,71.0,29.89,SSE,157,5.1,7.0,84,0.00,,,0.04,Rainwise IP-100,2013-09-01 19:46:00,
2013-09-01 15:51:00,77.4,72.0,29.90,SE,135,7.2,8.0,83,0.00,,,0.04,Rainwise IP-100,2013-09-01 19:51:00,
2013-09-01 15:56:00,77.1,71.0,29.90,SE,135,6.5,8.0,83,0.00,,,0.04,Rainwise IP-100,2013-09-01 19:56:00,
2013-09-01 16:01:00,76.2,71.0,29.90,ESE,112,5.8,8.0,84,0.00,,,0.04,Rainwise IP-100,2013-09-01 20:01:00,
2013-09-01 16:06:00,76.3,71.0,29.90,SSE,157,4.0,7.0,85,0.00,,,0.04,Rainwise IP-100,2013-09-01 20:06:00,
2013-09-01 16:11:00,76.8,72.0,29.90,SE,135,6.1,9.0,85,0.00,,,0.04,Rainwise IP-100,2013-09-01 20:11:00,
2013-09-01 16:16:00,76.8,71.0,29.90,SE,135,6.8,9.0,84,0.00,,,0.04,Rainwise IP-100,2013-09-01 20:16:00,
2013-09-01 16:21:00,76.7,71.0,29.90,SE,135,6.3,10.0,84,0.00,,,0.04,Rainwise IP-100,2013-09-01 20:21:00,
2013-09-01 16:26:00,76.9,72.0,29.90,SE,135,4.2,7.0,85,0.00,,,0.04,Rainwise IP-100,2013-09-01 20:26:00,
2013-09-01 16:31:00,76.5,71.0,29.91,SE,135,5.4,6.0,84,0.00,,,0.04,Rainwise IP-100,2013-09-01 20:31:00,
2013-09-01 16:36:00,75.9,71.0,29.91,ESE,112,7.0,10.0,85,0.00,,,0.04,Rainwise IP-100,2013-09-01 20:36:00,
2013-09-01 16:41:00,75.7,71.0,29.91,SE,135,4.9,9.0,86,0.00,,,0.04,Rainwise IP-100,2013-09-01 20:41:00,
2013-09-01 16:46:00,75.6,71.0,29.91,SE,135,4.4,7.0,86,0.00,,,0.04,Rainwise IP-100,2013-09-01 20:46:00,
2013-09-01 16:51:00,75.6,71.0,29.91,ESE,112,5.6,6.0,87,0.00,,,0.04,Rainwise IP-100,2013-09-01 20:51:00,
2013-09-01 16:56:00,75.7,71.0,29.91,SSE,157,4.9,8.0,86,0.00,,,0.04,Rainwise IP-100,2013-09-01 20:56:00,
2013-09-01 17:01:00,75.7,71.0,29.91,SSE,157,5.6,7.0,86,0.00,,,0.04,Rainwise IP-100,2013-09-01 21:01:00,
2013-09-01 17:06:00,75.9,71.0,29.91,SE,135,4.2,7.0,87,0.00,,,0.04,Rainwise IP-100,2013-09-01 21:06:00,
2013-09-01 17:11:00,76.1,71.0,29.90,SE,135,4.0,7.0,86,0.00,,,0.04,Rainwise IP-100,2013-09-01 21:11:00,
2013-09-01 17:16:00,76.0,71.0,29.91,ESE,112,1.9,8.0,86,0.00,,,0.04,Rainwise IP-100,2013-09-01 21:16:00,
2013-09-01 17:21:00,76.0,71.0,29.91,ESE,112,4.9,7.0,86,0.00,,,0.04,Rainwise IP-100,2013-09-01 21:21:00,
2013-09-01 17:26:00,75.4,71.0,29.91,ESE,112,5.1,7.0,86,0.00,,,0.04,Rainwise IP-100,2013-09-01 21:26:00,
2013-09-01 17:31:00,74.3,70.0,29.92,SE,135,2.6,5.0,87,0.00,,,0.04,Rainwise IP-100,2013-09-01 21:31:00,
2013-09-01 17:36:00,74.4,71.0,29.92,SE,135,2.8,5.0,88,0.00,,,0.04,Rainwise IP-100,2013-09-01 21:36:00,
2013-09-01 17:41:00,75.2,71.0,29.92,SE,135,2.1,5.0,87,0.00,,,0.04,Rainwise IP-100,2013-09-01 21:41:00,
2013-09-01 17:46:00,75.7,71.0,29.92,SE,135,2.8,4.0,86,0.00,,,0.04,Rainwise IP-100,2013-09-01 21:46:00,
2013-09-01 17:51:00,76.2,71.0,29.92,SE,135,4.4,5.0,85,0.00,,,0.04,Rainwise IP-100,2013-09-01 21:51:00,
2013-09-01 17:56:00,75.9,71.0,29.92,SE,135,6.5,7.0,85,0.00,,,0.04,Rainwise IP-100,2013-09-01 21:56:00,
2013-09-01 18:01:00,75.4,71.0,29.92,SE,135,5.4,7.0,86,0.00,,,0.04,Rainwise IP-100,2013-09-01 22:01:00,
2013-09-01 18:06:00,75.2,71.0,29.92,SSE,157,2.8,5.0,86,0.00,,,0.04,Rainwise IP-100,2013-09-01 22:06:00,
2013-09-01 18:11:00,74.9,71.0,29.93,SSE,157,3.5,7.0,87,0.00,,,0.04,Rainwise IP-100,2013-09-01 22:11:00,
2013-09-01 18:16:00,75.0,71.0,29.93,SE,135,4.0,7.0,87,0.00,,,0.04,Rainwise IP-100,2013-09-01 22:16:00,
2013-09-01 18:21:00,75.3,71.0,29.93,SE,135,4.0,5.0,87,0.00,,,0.04,Rainwise IP-100,2013-09-01 22:21:00,
2013-09-01 18:26:00,75.0,71.0,29.92,ESE,112,5.4,6.0,87,0.00,,,0.04,Rainwise IP-100,2013-09-01 22:26:00,
2013-09-01 18:31:00,74.1,70.0,29.93,SE,135,4.2,7.0,87,0.00,,,0.04,Rainwise IP-100,2013-09-01 22:31:00,
2013-09-01 18:36:00,73.8,70.0,29.93,SSE,157,3.5,6.0,88,0.00,,,0.04,Rainwise IP-100,2013-09-01 22:36:00,
2013-09-01 18:41:00,73.9,70.0,29.93,SSE,157,3.5,6.0,88,0.00,,,0.04,Rainwise IP-100,2013-09-01 22:41:00,
2013-09-01 18:46:00,73.1,69.0,29.93,SE,135,3.5,5.0,88,0.00,,,0.04,Rainwise IP-100,2013-09-01 22:46:00,
2013-09-01 18:51:00,71.7,68.0,29.93,SE,135,3.3,5.0,88,0.00,,,0.04,Rainwise IP-100,2013-09-01 22:51:00,
2013-09-01 18:56:00,71.3,68.0,29.94,SSE,157,3.5,4.0,90,0.00,,,0.04,Rainwise IP-100,2013-09-01 22:56:00,
2013-09-01 19:01:00,72.0,69.0,29.93,SSE,157,4.0,4.0,91,0.00,,,0.04,Rainwise IP-100,2013-09-01 23:01:00,
2013-09-01 19:06:00,72.6,70.0,29.93,SSE,157,3.3,4.0,92,0.00,,,0.04,Rainwise IP-100,2013-09-01 23:06:00,
2013-09-01 19:11:00,72.9,70.0,29.93,SSE,157,0.0,5.0,92,0.00,,,0.04,Rainwise IP-100,2013-09-01 23:11:00,
2013-09-01 19:16:00,73.1,70.0,29.94,SSE,157,1.9,5.0,92,0.00,,,0.04,Rainwise IP-100,2013-09-01 23:16:00,
2013-09-01 19:21:00,72.8,70.0,29.94,SE,135,2.3,5.0,91,0.00,,,0.04,Rainwise IP-100,2013-09-01 23:21:00,
2013-09-01 19:26:00,70.9,68.0,29.94,SE,135,5.4,10.0,91,0.00,,,0.04,Rainwise IP-100,2013-09-01 23:26:00,
2013-09-01 19:31:00,69.7,67.0,29.95,SE,135,3.0,5.0,92,0.00,,,0.04,Rainwise IP-100,2013-09-01 23:31:00,
2013-09-01 19:36:00,69.7,67.0,29.95,ESE,112,6.1,9.0,93,0.00,,,0.04,Rainwise IP-100,2013-09-01 23:36:00,
2013-09-01 19:41:00,68.9,66.0,29.95,SE,135,4.7,9.0,93,0.00,,,0.04,Rainwise IP-100,2013-09-01 23:41:00,
2013-09-01 19:46:00,68.8,66.0,29.96,SE,135,5.4,5.4,94,0.00,,,0.04,Rainwise IP-100,2013-09-01 23:46:00,
2013-09-01 19:51:00,70.3,68.0,29.95,South,180,2.3,9.0,95,0.00,,,0.04,Rainwise IP-100,2013-09-01 23:51:00,
2013-09-01 19:56:00,71.7,70.0,29.95,SE,135,4.0,10.0,95,0.00,,,0.04,Rainwise IP-100,2013-09-01 23:56:00,
2013-09-01 20:01:00,72.4,70.0,29.97,SE,135,4.2,7.0,93,0.00,,,0.04,Rainwise IP-100,2013-09-02 00:01:00,
2013-09-01 20:06:00,72.4,70.0,29.96,SE,135,3.3,6.0,93,0.00,,,0.04,Rainwise IP-100,2013-09-02 00:06:00,
2013-09-01 20:11:00,72.3,70.0,29.96,South,180,4.7,8.0,93,0.00,,,0.04,Rainwise IP-100,2013-09-02 00:11:00,
2013-09-01 20:16:00,72.1,69.0,29.97,South,180,3.0,8.0,93,0.00,,,0.04,Rainwise IP-100,2013-09-02 00:16:00,
2013-09-01 20:21:00,71.9,69.0,29.97,SSE,157,3.3,8.0,93,0.00,,,0.04,Rainwise IP-100,2013-09-02 00:21:00,
2013-09-01 20:26:00,71.7,69.0,29.97,SE,135,2.6,7.0,94,0.00,,,0.04,Rainwise IP-100,2013-09-02 00:26:00,
2013-09-01 20:31:00,71.6,69.0,29.98,SSE,157,1.9,5.0,94,0.00,,,0.04,Rainwise IP-100,2013-09-02 00:31:00,
2013-09-01 20:36:00,71.6,69.0,29.97,SSE,157,4.0,6.0,94,0.00,,,0.04,Rainwise IP-100,2013-09-02 00:36:00,
2013-09-01 20:41:00,70.7,68.0,29.97,SE,135,4.4,8.0,93,0.00,,,0.04,Rainwise IP-100,2013-09-02 00:41:00,
2013-09-01 20:46:00,69.7,67.0,29.97,SE,135,5.4,8.0,93,0.00,,,0.04,Rainwise IP-100,2013-09-02 00:46:00,
2013-09-01 20:51:00,68.8,66.0,29.97,SE,135,4.4,7.0,94,0.00,,,0.04,Rainwise IP-100,2013-09-02 00:51:00,
2013-09-01 20:56:00,67.5,66.0,29.97,ESE,112,7.5,9.0,94,0.00,,,0.04,Rainwise IP-100,2013-09-02 00:56:00,
2013-09-01 21:01:00,66.2,65.0,29.97,SE,135,3.5,9.0,95,0.00,,,0.04,Rainwise IP-100,2013-09-02 01:01:00,
2013-09-01 21:06:00,65.2,64.0,29.97,SE,135,5.6,5.6,96,0.00,,,0.04,Rainwise IP-100,2013-09-02 01:06:00,
2013-09-01 21:11:00,64.7,63.0,29.97,SE,135,4.0,6.0,97,0.00,,,0.04,Rainwise IP-100,2013-09-02 01:11:00,
2013-09-01 21:16:00,64.6,63.0,29.97,SSE,157,3.7,6.0,97,0.00,,,0.04,Rainwise IP-100,2013-09-02 01:16:00,
2013-09-01 21:21:00,65.0,64.0,29.97,SE,135,4.0,5.0,98,0.00,,,0.04,Rainwise IP-100,2013-09-02 01:21:00,
2013-09-01 21:26:00,65.1,64.0,29.98,SE,135,4.9,8.0,98,0.00,,,0.04,Rainwise IP-100,2013-09-02 01:26:00,
2013-09-01 21:31:00,65.1,64.0,29.97,SE,135,4.2,7.0,98,0.00,,,0.04,Rainwise IP-100,2013-09-02 01:31:00,
2013-09-01 21:36:00,65.2,64.0,29.98,SSE,157,2.8,6.0,99,0.00,,,0.04,Rainwise IP-100,2013-09-02 01:36:00,
2013-09-01 21:41:00,65.2,64.0,29.98,SE,135,3.5,5.0,99,0.00,,,0.04,Rainwise IP-100,2013-09-02 01:41:00,
2013-09-01 21:46:00,64.7,64.0,29.98,SSE,157,3.0,6.0,99,0.00,,,0.04,Rainwise IP-100,2013-09-02 01:46:00,
2013-09-01 21:51:00,64.3,63.0,29.98,SE,135,4.9,6.0,99,0.00,,,0.04,Rainwise IP-100,2013-09-02 01:51:00,
2013-09-01 21:56:00,64.0,63.0,29.98,SSE,157,2.3,6.0,99,0.00,,,0.04,Rainwise IP-100,2013-09-02 01:56:00,
2013-09-01 22:01:00,63.9,63.0,29.98,SE,135,2.3,5.0,99,0.00,,,0.04,Rainwise IP-100,2013-09-02 02:01:00,
2013-09-01 22:06:00,64.1,64.0,29.98,SE,135,5.4,6.0,100,0.00,,,0.04,Rainwise IP-100,2013-09-02 02:06:00,
2013-09-01 22:11:00,64.2,64.0,29.98,SE,135,6.8,9.0,100,0.00,,,0.04,Rainwise IP-100,2013-09-02 02:11:00,
2013-09-01 22:16:00,64.3,64.0,29.98,SE,135,4.0,7.0,100,0.00,,,0.04,Rainwise IP-100,2013-09-02 02:16:00,
2013-09-01 22:21:00,64.6,64.0,29.98,SE,135,3.3,7.0,100,0.00,,,0.04,Rainwise IP-100,2013-09-02 02:21:00,
2013-09-01 22:26:00,64.8,64.0,29.98,SE,135,3.3,4.0,100,0.00,,,0.04,Rainwise IP-100,2013-09-02 02:26:00,
2013-09-01 22:31:00,64.9,65.0,29.99,SE,135,3.0,4.0,100,0.00,,,0.04,Rainwise IP-100,2013-09-02 02:31:00,
2013-09-01 22:36:00,64.9,65.0,29.98,SE,135,2.8,6.0,100,0.00,,,0.04,Rainwise IP-100,2013-09-02 02:36:00,
2013-09-01 22:41:00,64.9,65.0,29.98,SE,135,2.6,5.0,100,0.00,,,0.04,Rainwise IP-100,2013-09-02 02:41:00,
2013-09-01 22:46:00,64.9,65.0,29.98,SSE,157,3.3,5.0,100,0.00,,,0.04,Rainwise IP-100,2013-09-02 02:46:00,
2013-09-01 22:51:00,65.0,65.0,29.98,SE,135,6.8,7.0,100,0.00,,,0.04,Rainwise IP-100,2013-09-02 02:51:00,
2013-09-01 22:56:00,65.1,65.0,29.98,SE,135,5.8,6.0,100,0.00,,,0.04,Rainwise IP-100,2013-09-02 02:56:00,
2013-09-01 23:01:00,65.2,65.0,29.98,SE,135,7.5,8.0,100,0.00,,,0.04,Rainwise IP-100,2013-09-02 03:01:00,
2013-09-01 23:06:00,65.3,65.0,29.98,SE,135,4.9,8.0,100,0.00,,,0.04,Rainwise IP-100,2013-09-02 03:06:00,
2013-09-01 23:11:00,65.2,65.0,29.98,SE,135,4.9,7.0,100,0.00,,,0.04,Rainwise IP-100,2013-09-02 03:11:00,
2013-09-01 23:16:00,65.0,65.0,29.98,SE,135,6.3,6.3,100,0.00,,,0.04,Rainwise IP-100,2013-09-02 03:16:00,
2013-09-01 23:21:00,64.9,65.0,29.98,SE,135,4.0,7.0,100,0.00,,,0.04,Rainwise IP-100,2013-09-02 03:21:00,
2013-09-01 23:26:00,64.9,65.0,29.98,SE,135,5.1,7.0,100,0.00,,,0.04,Rainwise IP-100,2013-09-02 03:26:00,
2013-09-01 23:31:00,64.8,64.0,29.99,SSE,157,5.1,6.0,100,0.00,,,0.04,Rainwise IP-100,2013-09-02 03:31:00,
2013-09-01 23:36:00,64.6,64.0,29.98,SE,135,4.7,6.0,100,0.00,,,0.04,Rainwise IP-100,2013-09-02 03:36:00,
2013-09-01 23:41:00,64.2,64.0,29.99,SE,135,5.4,5.4,100,0.00,,,0.04,Rainwise IP-100,2013-09-02 03:41:00,
2013-09-01 23:46:00,64.0,64.0,29.98,SSE,157,2.3,5.0,100,0.00,,,0.04,Rainwise IP-100,2013-09-02 03:46:00,
2013-09-01 23:51:00,64.3,64.0,29.98,SE,135,3.7,4.0,100,0.00,,,0.04,Rainwise IP-100,2013-09-02 03:51:00,
2013-09-01 23:56:00,64.5,64.0,29.98,SE,135,3.0,4.0,100,0.00,,,0.04,Rainwise IP-100,2013-09-02 03:56:00,